Year,Month,Day,Hour,Minute,Value (Times are PST for temperature in C)
2012,08,03,00,00,18.60
2012,08,03,00,01,18.60
2012,08,03,00,02,18.60
2012,08,03,00,03,18.60
2012,08,03,00,04,18.60
2012,08,03,00,05,18.60
2012,08,03,00,06,18.60
2012,08,03,00,07,18.70
2012,08,03,00,08,18.70
2012,08,03,00,09,18.60
2012,08,03,00,10,18.60
2012,08,03,00,11,18.60
2012,08,03,00,12,18.60
2012,08,03,00,16,18.60
2012,08,03,00,17,18.60
2012,08,03,00,18,18.60
2012,08,03,00,19,18.60
2012,08,03,00,20,18.60
2012,08,03,00,21,18.60
2012,08,03,00,22,18.60
2012,08,03,00,23,18.50
2012,08,03,00,24,18.50
2012,08,03,00,25,18.50
2012,08,03,00,26,18.40
2012,08,03,00,27,18.40
2012,08,03,00,28,18.40
2012,08,03,00,29,18.40
2012,08,03,00,30,18.40
2012,08,03,00,31,18.40
2012,08,03,00,32,18.30
2012,08,03,00,33,18.30
2012,08,03,00,34,18.30
2012,08,03,00,35,18.30
2012,08,03,00,36,18.30
2012,08,03,00,37,18.30
2012,08,03,00,38,18.20
2012,08,03,00,39,18.20
2012,08,03,00,40,18.20
2012,08,03,00,41,18.20
2012,08,03,00,42,18.20
2012,08,03,00,43,18.20
2012,08,03,00,44,18.20
2012,08,03,00,45,18.10
2012,08,03,00,46,18.10
2012,08,03,00,47,18.10
2012,08,03,00,48,18.10
2012,08,03,00,49,18.00
2012,08,03,00,50,18.00
2012,08,03,00,51,18.00
2012,08,03,00,52,18.00
2012,08,03,00,53,17.90
2012,08,03,00,54,17.90
2012,08,03,00,55,17.90
2012,08,03,00,56,17.90
2012,08,03,00,57,17.90
2012,08,03,00,58,17.80
2012,08,03,00,59,17.80
2012,08,03,01,00,17.80
2012,08,03,01,01,17.80
2012,08,03,01,02,17.80
2012,08,03,01,03,17.80
2012,08,03,01,04,17.80
2012,08,03,01,05,17.70
2012,08,03,01,06,17.70
2012,08,03,01,07,17.70
2012,08,03,01,08,17.70
2012,08,03,01,09,17.60
2012,08,03,01,10,17.60
2012,08,03,01,11,17.60
2012,08,03,01,12,17.50
2012,08,03,01,13,17.50
2012,08,03,01,14,17.50
2012,08,03,01,15,17.40
2012,08,03,01,16,17.40
2012,08,03,01,17,17.40
2012,08,03,01,18,17.40
2012,08,03,01,19,17.30
2012,08,03,01,20,17.30
2012,08,03,01,21,17.30
2012,08,03,01,22,17.30
2012,08,03,01,23,17.30
2012,08,03,01,24,17.20
2012,08,03,01,25,17.20
2012,08,03,01,26,17.20
2012,08,03,01,27,17.20
2012,08,03,01,28,17.20
2012,08,03,01,29,17.20
2012,08,03,01,30,17.10
2012,08,03,01,31,17.10
2012,08,03,01,32,17.10
2012,08,03,01,33,17.10
2012,08,03,01,34,17.10
2012,08,03,01,35,17.10
2012,08,03,01,36,17.10
2012,08,03,01,37,17.10
2012,08,03,01,38,17.00
2012,08,03,01,39,17.00
2012,08,03,01,40,17.00
2012,08,03,01,41,17.00
2012,08,03,01,42,17.00
2012,08,03,01,43,17.00
2012,08,03,01,44,16.90
2012,08,03,01,45,16.90
2012,08,03,01,46,16.90
2012,08,03,01,47,16.90
2012,08,03,01,48,16.80
2012,08,03,01,49,16.80
2012,08,03,01,50,16.80
2012,08,03,01,51,16.80
2012,08,03,01,52,16.70
2012,08,03,01,53,16.70
2012,08,03,01,54,16.70
2012,08,03,01,55,16.70
2012,08,03,01,56,16.70
2012,08,03,01,57,16.70
2012,08,03,01,58,16.60
2012,08,03,01,59,16.60
2012,08,03,02,00,16.60
2012,08,03,02,01,16.60
2012,08,03,02,02,16.60
2012,08,03,02,03,16.50
2012,08,03,02,04,16.50
2012,08,03,02,05,16.40
2012,08,03,02,06,16.40
2012,08,03,02,07,16.40
2012,08,03,02,08,16.40
2012,08,03,02,09,16.40
2012,08,03,02,10,16.30
2012,08,03,02,11,16.30
2012,08,03,02,12,16.30
2012,08,03,02,13,16.30
2012,08,03,02,14,16.30
2012,08,03,02,15,16.30
2012,08,03,02,16,16.20
2012,08,03,02,17,16.20
2012,08,03,02,18,16.20
2012,08,03,02,19,16.20
2012,08,03,02,20,16.20
2012,08,03,02,21,16.20
2012,08,03,02,22,16.10
2012,08,03,02,23,16.10
2012,08,03,02,24,16.10
2012,08,03,02,25,16.10
2012,08,03,02,26,16.10
2012,08,03,02,27,16.10
2012,08,03,02,28,16.10
2012,08,03,02,29,16.10
2012,08,03,02,30,16.10
2012,08,03,02,31,16.10
2012,08,03,02,32,16.10
2012,08,03,02,33,16.10
2012,08,03,02,34,16.10
2012,08,03,02,35,16.10
2012,08,03,02,36,16.10
2012,08,03,02,37,16.10
2012,08,03,02,38,16.20
2012,08,03,02,39,16.10
2012,08,03,02,40,16.10
2012,08,03,02,41,16.10
2012,08,03,02,42,16.10
2012,08,03,02,43,16.10
2012,08,03,02,44,16.20
2012,08,03,02,45,16.20
2012,08,03,02,46,16.20
2012,08,03,02,47,16.20
2012,08,03,02,48,16.20
2012,08,03,02,49,16.20
2012,08,03,02,50,16.20
2012,08,03,02,51,16.20
2012,08,03,02,52,16.20
2012,08,03,02,53,16.20
2012,08,03,02,54,16.10
2012,08,03,02,55,16.10
2012,08,03,02,56,16.10
2012,08,03,02,57,16.10
2012,08,03,02,58,16.10
2012,08,03,02,59,16.10
2012,08,03,03,00,16.00
2012,08,03,03,01,16.00
2012,08,03,03,02,16.00
2012,08,03,03,03,16.00
2012,08,03,03,04,15.90
2012,08,03,03,05,15.90
2012,08,03,03,06,15.90
2012,08,03,03,07,15.90
2012,08,03,03,08,15.90
2012,08,03,03,09,15.90
2012,08,03,03,10,15.90
2012,08,03,03,11,15.80
2012,08,03,03,12,15.80
2012,08,03,03,13,15.80
2012,08,03,03,14,15.80
2012,08,03,03,15,15.90
2012,08,03,03,16,15.90
2012,08,03,03,17,15.80
2012,08,03,03,18,15.80
2012,08,03,03,19,15.80
2012,08,03,03,20,15.80
2012,08,03,03,21,15.80
2012,08,03,03,22,15.80
2012,08,03,03,23,15.80
2012,08,03,03,24,15.80
2012,08,03,03,25,15.80
2012,08,03,03,26,15.80
2012,08,03,03,27,15.70
2012,08,03,03,28,15.70
2012,08,03,03,29,15.70
2012,08,03,03,30,15.70
2012,08,03,03,31,15.70
2012,08,03,03,32,15.70
2012,08,03,03,33,15.70
2012,08,03,03,34,15.70
2012,08,03,03,35,15.70
2012,08,03,03,36,15.70
2012,08,03,03,37,15.70
2012,08,03,03,38,15.70
2012,08,03,03,39,15.70
2012,08,03,03,40,15.70
2012,08,03,03,41,15.70
2012,08,03,03,42,15.70
2012,08,03,03,43,15.70
2012,08,03,03,44,15.70
2012,08,03,03,45,15.70
2012,08,03,03,46,15.70
2012,08,03,03,47,15.80
2012,08,03,03,48,15.80
2012,08,03,03,49,15.80
2012,08,03,03,50,15.80
2012,08,03,03,51,15.80
2012,08,03,03,52,15.80
2012,08,03,03,53,15.70
2012,08,03,03,54,15.70
2012,08,03,03,55,15.60
2012,08,03,03,56,15.60
2012,08,03,03,57,15.60
2012,08,03,03,58,15.50
2012,08,03,03,59,15.40
2012,08,03,04,00,15.40
2012,08,03,04,01,15.30
2012,08,03,04,02,15.20
2012,08,03,04,03,15.10
2012,08,03,04,04,15.10
2012,08,03,04,05,15.00
2012,08,03,04,06,15.00
2012,08,03,04,07,15.00
2012,08,03,04,08,15.00
2012,08,03,04,09,15.00
2012,08,03,04,10,15.00
2012,08,03,04,11,15.00
2012,08,03,04,12,15.00
2012,08,03,04,13,15.00
2012,08,03,04,14,15.00
2012,08,03,04,15,15.00
2012,08,03,04,16,15.00
2012,08,03,04,17,15.00
2012,08,03,04,18,15.00
2012,08,03,04,19,15.10
2012,08,03,04,20,15.10
2012,08,03,04,21,15.20
2012,08,03,04,22,15.20
2012,08,03,04,23,15.20
2012,08,03,04,24,15.30
2012,08,03,04,25,15.30
2012,08,03,04,26,15.30
2012,08,03,04,27,15.30
2012,08,03,04,28,15.30
2012,08,03,04,29,15.30
2012,08,03,04,30,15.30
2012,08,03,04,31,15.40
2012,08,03,04,32,15.40
2012,08,03,04,33,15.40
2012,08,03,04,34,15.40
2012,08,03,04,35,15.40
2012,08,03,04,36,15.40
2012,08,03,04,37,15.40
2012,08,03,04,38,15.40
2012,08,03,04,39,15.30
2012,08,03,04,40,15.30
2012,08,03,04,41,15.30
2012,08,03,04,42,15.30
2012,08,03,04,43,15.30
2012,08,03,04,44,15.20
2012,08,03,04,45,15.20
2012,08,03,04,46,15.20
2012,08,03,04,47,15.20
2012,08,03,04,48,15.20
2012,08,03,04,49,15.20
2012,08,03,04,50,15.20
2012,08,03,04,51,15.20
2012,08,03,04,52,15.20
2012,08,03,04,53,15.20
2012,08,03,04,54,15.20
2012,08,03,04,55,15.20
2012,08,03,04,56,15.20
2012,08,03,04,57,15.10
2012,08,03,04,58,15.10
2012,08,03,04,59,15.00
2012,08,03,05,00,15.00
2012,08,03,05,01,15.00
2012,08,03,05,02,15.00
2012,08,03,05,03,15.00
2012,08,03,05,04,15.00
2012,08,03,05,05,15.00
2012,08,03,05,06,15.00
2012,08,03,05,07,15.00
2012,08,03,05,08,15.00
2012,08,03,05,09,15.00
2012,08,03,05,10,14.90
2012,08,03,05,11,14.90
2012,08,03,05,12,14.80
2012,08,03,05,13,14.80
2012,08,03,05,14,14.90
2012,08,03,05,15,14.90
2012,08,03,05,16,14.90
2012,08,03,05,17,14.90
2012,08,03,05,18,14.90
2012,08,03,05,19,14.90
2012,08,03,05,20,14.90
2012,08,03,05,21,15.00
2012,08,03,05,22,15.00
2012,08,03,05,23,15.00
2012,08,03,05,24,15.00
2012,08,03,05,25,15.00
2012,08,03,05,26,15.00
2012,08,03,05,27,15.00
2012,08,03,05,28,15.00
2012,08,03,05,29,15.00
2012,08,03,05,30,15.00
2012,08,03,05,31,15.00
2012,08,03,05,32,15.00
2012,08,03,05,33,15.00
2012,08,03,05,34,15.00
2012,08,03,05,35,15.00
2012,08,03,05,36,15.00
2012,08,03,05,37,15.00
2012,08,03,05,38,15.00
2012,08,03,05,39,15.00
2012,08,03,05,40,14.90
2012,08,03,05,41,14.80
2012,08,03,05,42,14.80
2012,08,03,05,43,14.80
2012,08,03,05,44,14.70
2012,08,03,05,45,14.70
2012,08,03,05,46,14.60
2012,08,03,05,47,14.60
2012,08,03,05,48,14.70
2012,08,03,05,49,14.70
2012,08,03,05,50,14.70
2012,08,03,05,51,14.70
2012,08,03,05,52,14.70
2012,08,03,05,53,14.70
2012,08,03,05,54,14.80
2012,08,03,05,55,14.80
2012,08,03,05,56,14.90
2012,08,03,05,57,14.90
2012,08,03,05,58,15.00
2012,08,03,05,59,15.00
2012,08,03,06,00,15.00
2012,08,03,06,01,15.00
2012,08,03,06,02,15.00
2012,08,03,06,03,15.00
2012,08,03,06,04,15.00
2012,08,03,06,05,15.00
2012,08,03,06,06,15.00
2012,08,03,06,07,15.00
2012,08,03,06,08,15.00
2012,08,03,06,09,15.10
2012,08,03,06,10,15.20
2012,08,03,06,11,15.20
2012,08,03,06,12,15.30
2012,08,03,06,13,15.30
2012,08,03,06,14,15.40
2012,08,03,06,15,15.40
2012,08,03,06,16,15.50
2012,08,03,06,17,15.50
2012,08,03,06,18,15.60
2012,08,03,06,19,15.60
2012,08,03,06,20,15.60
2012,08,03,06,21,15.70
2012,08,03,06,22,15.70
2012,08,03,06,23,15.70
2012,08,03,06,24,15.70
2012,08,03,06,25,15.70
2012,08,03,06,26,15.70
2012,08,03,06,27,15.70
2012,08,03,06,28,15.80
2012,08,03,06,29,15.80
2012,08,03,06,30,15.80
2012,08,03,06,31,15.80
2012,08,03,06,32,15.90
2012,08,03,06,33,15.90
2012,08,03,06,34,15.90
2012,08,03,06,35,16.00
2012,08,03,06,36,16.00
2012,08,03,06,37,16.10
2012,08,03,06,38,16.10
2012,08,03,06,39,16.10
2012,08,03,06,40,16.10
2012,08,03,06,41,16.20
2012,08,03,06,42,16.20
2012,08,03,06,43,16.10
2012,08,03,06,44,16.10
2012,08,03,06,45,16.10
2012,08,03,06,46,16.10
2012,08,03,06,47,16.10
2012,08,03,06,48,16.00
2012,08,03,06,49,16.00
2012,08,03,06,50,16.00
2012,08,03,06,51,16.00
2012,08,03,06,52,16.00
2012,08,03,06,53,16.00
2012,08,03,06,54,16.00
2012,08,03,06,55,16.00
2012,08,03,06,56,16.10
2012,08,03,06,57,16.10
2012,08,03,06,58,16.10
2012,08,03,06,59,16.10
2012,08,03,07,00,16.10
2012,08,03,07,01,16.10
2012,08,03,07,02,16.00
2012,08,03,07,03,15.90
2012,08,03,07,04,15.90
2012,08,03,07,05,15.90
2012,08,03,07,06,15.90
2012,08,03,07,07,16.00
2012,08,03,07,08,16.00
2012,08,03,07,09,16.00
2012,08,03,07,10,16.00
2012,08,03,07,11,16.00
2012,08,03,07,12,16.00
2012,08,03,07,13,16.00
2012,08,03,07,14,16.00
2012,08,03,07,15,16.10
2012,08,03,07,16,16.10
2012,08,03,07,17,16.10
2012,08,03,07,18,16.10
2012,08,03,07,19,16.10
2012,08,03,07,20,16.10
2012,08,03,07,21,16.10
2012,08,03,07,22,16.10
2012,08,03,07,23,16.10
2012,08,03,07,24,16.20
2012,08,03,07,25,16.20
2012,08,03,07,26,16.30
2012,08,03,07,27,16.30
2012,08,03,07,28,16.40
2012,08,03,07,29,16.50
2012,08,03,07,30,16.60
2012,08,03,07,31,16.60
2012,08,03,07,32,16.60
2012,08,03,07,33,16.70
2012,08,03,07,34,16.70
2012,08,03,07,35,16.80
2012,08,03,07,36,16.90
2012,08,03,07,37,16.90
2012,08,03,07,38,17.00
2012,08,03,07,39,17.00
2012,08,03,07,40,17.10
2012,08,03,07,41,17.20
2012,08,03,07,42,17.20
2012,08,03,07,43,17.30
2012,08,03,07,44,17.30
2012,08,03,07,45,17.30
2012,08,03,07,46,17.40
2012,08,03,07,47,17.40
2012,08,03,07,48,17.50
2012,08,03,07,49,17.60
2012,08,03,07,50,17.60
2012,08,03,07,51,17.70
2012,08,03,07,52,17.80
2012,08,03,07,53,17.80
2012,08,03,07,54,17.80
2012,08,03,07,55,17.90
2012,08,03,07,56,17.90
2012,08,03,07,57,17.90
2012,08,03,07,58,17.90
2012,08,03,07,59,17.90
2012,08,03,08,00,17.90
2012,08,03,08,01,17.90
2012,08,03,08,02,17.90
2012,08,03,08,03,17.90
2012,08,03,08,04,18.00
2012,08,03,08,05,18.00
2012,08,03,08,06,18.00
2012,08,03,08,07,18.00
2012,08,03,08,08,18.00
2012,08,03,08,09,18.10
2012,08,03,08,10,18.20
2012,08,03,08,11,18.20
2012,08,03,08,12,18.30
2012,08,03,08,13,18.30
2012,08,03,08,14,18.30
2012,08,03,08,15,18.30
2012,08,03,08,16,18.30
2012,08,03,08,17,18.30
2012,08,03,08,18,18.20
2012,08,03,08,19,18.20
2012,08,03,08,20,18.20
2012,08,03,08,21,18.20
2012,08,03,08,22,18.20
2012,08,03,08,23,18.20
2012,08,03,08,24,18.30
2012,08,03,08,25,18.30
2012,08,03,08,26,18.30
2012,08,03,08,27,18.30
2012,08,03,08,28,18.30
2012,08,03,08,29,18.40
2012,08,03,08,30,18.40
2012,08,03,08,31,18.40
2012,08,03,08,32,18.40
2012,08,03,08,33,18.40
2012,08,03,08,34,18.40
2012,08,03,08,35,18.40
2012,08,03,08,36,18.40
2012,08,03,08,37,18.40
2012,08,03,08,38,18.50
2012,08,03,08,39,18.50
2012,08,03,08,40,18.60
2012,08,03,08,41,18.50
2012,08,03,08,42,18.60
2012,08,03,08,43,18.60
2012,08,03,08,44,18.60
2012,08,03,08,45,18.70
2012,08,03,08,46,18.70
2012,08,03,08,47,18.70
2012,08,03,08,48,18.70
2012,08,03,08,49,18.70
2012,08,03,08,50,18.70
2012,08,03,08,51,18.80
2012,08,03,08,52,18.90
2012,08,03,08,53,18.90
2012,08,03,08,54,18.90
2012,08,03,08,55,18.90
2012,08,03,08,56,18.90
2012,08,03,08,57,18.80
2012,08,03,08,58,18.90
2012,08,03,08,59,18.90
2012,08,03,09,00,19.00
2012,08,03,09,01,18.90
2012,08,03,09,02,18.90
2012,08,03,09,03,18.90
2012,08,03,09,04,18.90
2012,08,03,09,05,18.80
2012,08,03,09,06,18.80
2012,08,03,09,07,18.80
2012,08,03,09,08,18.80
2012,08,03,09,09,18.90
2012,08,03,09,10,18.90
2012,08,03,09,11,19.00
2012,08,03,09,12,19.10
2012,08,03,09,13,19.20
2012,08,03,09,14,19.30
2012,08,03,09,15,19.40
2012,08,03,09,16,19.40
2012,08,03,09,17,19.40
2012,08,03,09,18,19.50
2012,08,03,09,19,19.50
2012,08,03,09,20,19.50
2012,08,03,09,21,19.50
2012,08,03,09,22,19.60
2012,08,03,09,23,19.60
2012,08,03,09,24,19.60
2012,08,03,09,25,19.50
2012,08,03,09,26,19.50
2012,08,03,09,27,19.60
2012,08,03,09,28,19.60
2012,08,03,09,29,19.70
2012,08,03,09,30,19.80
2012,08,03,09,31,19.90
2012,08,03,09,32,19.90
2012,08,03,09,33,20.00
2012,08,03,09,34,20.10
2012,08,03,09,35,20.20
2012,08,03,09,36,20.20
2012,08,03,09,37,20.20
2012,08,03,09,38,20.30
2012,08,03,09,39,20.30
2012,08,03,09,40,20.30
2012,08,03,09,41,20.30
2012,08,03,09,42,20.20
2012,08,03,09,43,20.20
2012,08,03,09,44,20.20
2012,08,03,09,45,20.20
2012,08,03,09,46,20.20
2012,08,03,09,47,20.20
2012,08,03,09,48,20.10
2012,08,03,09,49,20.10
2012,08,03,09,50,20.20
2012,08,03,09,51,20.30
2012,08,03,09,52,20.30
2012,08,03,09,53,20.40
2012,08,03,09,54,20.40
2012,08,03,09,55,20.40
2012,08,03,09,56,20.40
2012,08,03,09,57,20.50
2012,08,03,09,58,20.50
2012,08,03,09,59,20.60
2012,08,03,10,00,20.60
2012,08,03,10,01,20.70
2012,08,03,10,02,20.70
2012,08,03,10,03,20.80
2012,08,03,10,04,20.80
2012,08,03,10,05,20.80
2012,08,03,10,06,20.70
2012,08,03,10,07,20.70
2012,08,03,10,08,20.70
2012,08,03,10,09,20.70
2012,08,03,10,10,20.80
2012,08,03,10,11,20.80
2012,08,03,10,12,20.80
2012,08,03,10,13,20.80
2012,08,03,10,14,20.80
2012,08,03,10,15,20.90
2012,08,03,10,16,21.00
2012,08,03,10,17,21.00
2012,08,03,10,18,21.10
2012,08,03,10,19,21.20
2012,08,03,10,20,21.30
2012,08,03,10,21,21.30
2012,08,03,10,22,21.30
2012,08,03,10,23,21.30
2012,08,03,10,24,21.20
2012,08,03,10,25,21.20
2012,08,03,10,26,21.20
2012,08,03,10,27,21.30
2012,08,03,10,28,21.40
2012,08,03,10,29,21.40
2012,08,03,10,30,21.40
2012,08,03,10,31,21.40
2012,08,03,10,32,21.40
2012,08,03,10,33,21.50
2012,08,03,10,34,21.60
2012,08,03,10,35,21.70
2012,08,03,10,36,21.80
2012,08,03,10,37,21.80
2012,08,03,10,38,21.80
2012,08,03,10,39,21.80
2012,08,03,10,40,21.80
2012,08,03,10,41,21.80
2012,08,03,10,42,21.90
2012,08,03,10,43,21.90
2012,08,03,10,44,22.00
2012,08,03,10,45,22.00
2012,08,03,10,46,22.10
2012,08,03,10,47,22.20
2012,08,03,10,48,22.30
2012,08,03,10,49,22.30
2012,08,03,10,50,22.40
2012,08,03,10,51,22.40
2012,08,03,10,52,22.40
2012,08,03,10,53,22.40
2012,08,03,10,54,22.30
2012,08,03,10,55,22.20
2012,08,03,10,56,22.20
2012,08,03,10,57,22.20
2012,08,03,10,58,22.20
2012,08,03,10,59,22.20
2012,08,03,11,00,22.20
2012,08,03,11,01,22.20
2012,08,03,11,02,22.20
2012,08,03,11,03,22.30
2012,08,03,11,04,22.40
2012,08,03,11,05,22.30
2012,08,03,11,06,22.30
2012,08,03,11,07,22.30
2012,08,03,11,08,22.20
2012,08,03,11,09,22.20
2012,08,03,11,10,22.20
2012,08,03,11,11,22.20
2012,08,03,11,12,22.20
2012,08,03,11,13,22.30
2012,08,03,11,14,22.40
2012,08,03,11,15,22.50
2012,08,03,11,16,22.60
2012,08,03,11,17,22.60
2012,08,03,11,18,22.70
2012,08,03,11,19,22.70
2012,08,03,11,20,22.70
2012,08,03,11,21,22.80
2012,08,03,11,22,22.90
2012,08,03,11,23,23.00
2012,08,03,11,24,23.10
2012,08,03,11,25,23.10
2012,08,03,11,26,23.10
2012,08,03,11,27,23.10
2012,08,03,11,28,23.10
2012,08,03,11,29,23.20
2012,08,03,11,30,23.30
2012,08,03,11,31,23.40
2012,08,03,11,32,23.50
2012,08,03,11,33,23.70
2012,08,03,11,34,23.70
2012,08,03,11,35,23.70
2012,08,03,11,36,23.70
2012,08,03,11,37,23.70
2012,08,03,11,38,23.70
2012,08,03,11,39,23.80
2012,08,03,11,40,23.80
2012,08,03,11,41,23.80
2012,08,03,11,42,23.70
2012,08,03,11,43,23.60
2012,08,03,11,44,23.40
2012,08,03,11,45,23.30
2012,08,03,11,46,23.20
2012,08,03,11,47,23.10
2012,08,03,11,48,23.00
2012,08,03,11,49,22.90
2012,08,03,11,50,22.80
2012,08,03,11,51,22.80
2012,08,03,11,52,22.70
2012,08,03,11,53,22.70
2012,08,03,11,54,22.60
2012,08,03,11,55,22.40
2012,08,03,11,56,22.40
2012,08,03,11,57,22.30
2012,08,03,11,58,22.40
2012,08,03,11,59,22.50
2012,08,03,12,00,22.60
2012,08,03,12,01,22.70
2012,08,03,12,02,22.80
2012,08,03,12,03,22.70
2012,08,03,12,04,22.60
2012,08,03,12,05,22.60
2012,08,03,12,06,22.60
2012,08,03,12,07,22.70
2012,08,03,12,08,22.80
2012,08,03,12,09,22.90
2012,08,03,12,10,23.00
2012,08,03,12,11,23.10
2012,08,03,12,12,23.00
2012,08,03,12,13,23.00
2012,08,03,12,14,23.00
2012,08,03,12,15,23.00
2012,08,03,12,16,23.10
2012,08,03,12,17,23.10
2012,08,03,12,18,23.10
2012,08,03,12,19,23.10
2012,08,03,12,20,23.10
2012,08,03,12,21,23.10
2012,08,03,12,22,23.10
2012,08,03,12,23,23.10
2012,08,03,12,24,23.10
2012,08,03,12,25,23.10
2012,08,03,12,26,23.10
2012,08,03,12,27,23.10
2012,08,03,12,28,23.10
2012,08,03,12,29,23.10
2012,08,03,12,30,23.20
2012,08,03,12,31,23.20
2012,08,03,12,32,23.20
2012,08,03,12,33,23.30
2012,08,03,12,34,23.40
2012,08,03,12,35,23.40
2012,08,03,12,36,23.40
2012,08,03,12,37,23.40
2012,08,03,12,38,23.30
2012,08,03,12,39,23.30
2012,08,03,12,40,23.30
2012,08,03,12,41,23.30
2012,08,03,12,42,23.30
2012,08,03,12,43,23.40
2012,08,03,12,44,23.40
2012,08,03,12,45,23.40
2012,08,03,12,46,23.50
2012,08,03,12,47,23.40
2012,08,03,12,48,23.30
2012,08,03,12,49,23.30
2012,08,03,12,50,23.30
2012,08,03,12,51,23.30
2012,08,03,12,52,23.20
2012,08,03,12,53,23.10
2012,08,03,12,54,23.10
2012,08,03,12,55,23.10
2012,08,03,12,56,23.10
2012,08,03,12,57,23.20
2012,08,03,12,58,23.40
2012,08,03,12,59,23.50
2012,08,03,13,00,23.50
2012,08,03,13,01,23.60
2012,08,03,13,02,23.60
2012,08,03,13,03,23.70
2012,08,03,13,04,23.70
2012,08,03,13,05,23.80
2012,08,03,13,06,23.80
2012,08,03,13,07,23.70
2012,08,03,13,08,23.70
2012,08,03,13,09,23.70
2012,08,03,13,10,23.70
2012,08,03,13,11,23.80
2012,08,03,13,12,23.80
2012,08,03,13,13,23.80
2012,08,03,13,14,23.80
2012,08,03,13,15,23.80
2012,08,03,13,16,23.80
2012,08,03,13,17,23.90
2012,08,03,13,18,23.90
2012,08,03,13,19,23.80
2012,08,03,13,20,23.80
2012,08,03,13,21,23.90
2012,08,03,13,22,23.90
2012,08,03,13,23,23.90
2012,08,03,13,24,23.90
2012,08,03,13,25,23.90
2012,08,03,13,26,23.90
2012,08,03,13,27,24.00
2012,08,03,13,28,24.00
2012,08,03,13,29,24.00
2012,08,03,13,30,24.10
2012,08,03,13,31,24.10
2012,08,03,13,32,24.20
2012,08,03,13,33,24.30
2012,08,03,13,34,24.30
2012,08,03,13,35,24.30
2012,08,03,13,36,24.30
2012,08,03,13,37,24.20
2012,08,03,13,38,24.10
2012,08,03,13,39,23.90
2012,08,03,13,40,23.70
2012,08,03,13,41,23.70
2012,08,03,13,42,23.70
2012,08,03,13,43,23.70
2012,08,03,13,44,23.80
2012,08,03,13,45,23.90
2012,08,03,13,46,24.00
2012,08,03,13,47,24.10
2012,08,03,13,48,24.20
2012,08,03,13,49,24.20
2012,08,03,13,50,24.30
2012,08,03,13,51,24.30
2012,08,03,13,52,24.20
2012,08,03,13,53,24.20
2012,08,03,13,54,24.30
2012,08,03,13,55,24.40
2012,08,03,13,56,24.40
2012,08,03,13,57,24.50
2012,08,03,13,58,24.60
2012,08,03,13,59,24.70
2012,08,03,14,00,24.70
2012,08,03,14,01,24.70
2012,08,03,14,02,24.70
2012,08,03,14,03,24.70
2012,08,03,14,04,24.60
2012,08,03,14,05,24.60
2012,08,03,14,06,24.60
2012,08,03,14,07,24.60
2012,08,03,14,08,24.60
2012,08,03,14,09,24.60
2012,08,03,14,10,24.70
2012,08,03,14,11,24.70
2012,08,03,14,12,24.70
2012,08,03,14,13,24.80
2012,08,03,14,14,24.80
2012,08,03,14,15,24.90
2012,08,03,14,16,24.90
2012,08,03,14,17,25.00
2012,08,03,14,18,25.10
2012,08,03,14,19,25.20
2012,08,03,14,20,25.20
2012,08,03,14,21,25.30
2012,08,03,14,22,25.30
2012,08,03,14,23,25.40
2012,08,03,14,24,25.50
2012,08,03,14,25,25.60
2012,08,03,14,26,25.60
2012,08,03,14,27,25.60
2012,08,03,14,28,25.50
2012,08,03,14,29,25.50
2012,08,03,14,30,25.50
2012,08,03,14,31,25.60
2012,08,03,14,32,25.60
2012,08,03,14,33,25.70
2012,08,03,14,34,25.70
2012,08,03,14,35,25.80
2012,08,03,14,36,25.90
2012,08,03,14,37,25.90
2012,08,03,14,38,26.00
2012,08,03,14,39,26.10
2012,08,03,14,40,26.20
2012,08,03,14,41,26.30
2012,08,03,14,42,26.40
2012,08,03,14,43,26.50
2012,08,03,14,44,26.50
2012,08,03,14,45,26.40
2012,08,03,14,46,26.40
2012,08,03,14,47,26.50
2012,08,03,14,48,26.50
2012,08,03,14,49,26.50
2012,08,03,14,50,26.50
2012,08,03,14,51,26.60
2012,08,03,14,52,26.60
2012,08,03,14,53,26.60
2012,08,03,14,54,26.50
2012,08,03,14,55,26.50
2012,08,03,14,56,26.40
2012,08,03,14,57,26.50
2012,08,03,14,58,26.60
2012,08,03,14,59,26.60
2012,08,03,15,00,26.60
2012,08,03,15,01,26.60
2012,08,03,15,02,26.60
2012,08,03,15,03,26.60
2012,08,03,15,04,26.60
2012,08,03,15,05,26.70
2012,08,03,15,06,26.70
2012,08,03,15,07,26.70
2012,08,03,15,08,26.60
2012,08,03,15,09,26.50
2012,08,03,15,10,26.50
2012,08,03,15,11,26.40
2012,08,03,15,12,26.40
2012,08,03,15,13,26.40
2012,08,03,15,14,26.40
2012,08,03,15,15,26.40
2012,08,03,15,16,26.30
2012,08,03,15,17,26.30
2012,08,03,15,18,26.30
2012,08,03,15,19,26.20
2012,08,03,15,20,26.20
2012,08,03,15,21,26.20
2012,08,03,15,22,26.20
2012,08,03,15,23,26.20
2012,08,03,15,24,26.30
2012,08,03,15,25,26.40
2012,08,03,15,26,26.40
2012,08,03,15,27,26.40
2012,08,03,15,28,26.40
2012,08,03,15,29,26.50
2012,08,03,15,30,26.50
2012,08,03,15,31,26.40
2012,08,03,15,32,26.30
2012,08,03,15,33,26.40
2012,08,03,15,34,26.40
2012,08,03,15,35,26.50
2012,08,03,15,36,26.60
2012,08,03,15,37,26.70
2012,08,03,15,38,26.70
2012,08,03,15,39,26.60
2012,08,03,15,40,26.50
2012,08,03,15,41,26.60
2012,08,03,15,42,26.60
2012,08,03,15,43,26.60
2012,08,03,15,44,26.60
2012,08,03,15,45,26.60
2012,08,03,15,46,26.60
2012,08,03,15,47,26.70
2012,08,03,15,48,26.70
2012,08,03,15,49,26.70
2012,08,03,15,50,26.80
2012,08,03,15,51,26.80
2012,08,03,15,52,26.90
2012,08,03,15,53,26.90
2012,08,03,15,54,26.90
2012,08,03,15,55,26.90
2012,08,03,15,56,26.90
2012,08,03,15,57,26.80
2012,08,03,15,58,26.80
2012,08,03,15,59,26.80
2012,08,03,16,00,26.90
2012,08,03,16,01,26.90
2012,08,03,16,02,26.90
2012,08,03,16,03,26.90
2012,08,03,16,04,26.90
2012,08,03,16,05,26.90
2012,08,03,16,06,26.90
2012,08,03,16,07,26.90
2012,08,03,16,08,26.90
2012,08,03,16,09,26.90
2012,08,03,16,10,27.00
2012,08,03,16,11,27.00
2012,08,03,16,12,27.10
2012,08,03,16,13,27.00
2012,08,03,16,14,27.10
2012,08,03,16,15,27.10
2012,08,03,16,16,27.10
2012,08,03,16,17,27.20
2012,08,03,16,18,27.30
2012,08,03,16,19,27.40
2012,08,03,16,20,27.50
2012,08,03,16,21,27.60
2012,08,03,16,22,27.60
2012,08,03,16,23,27.60
2012,08,03,16,24,27.60
2012,08,03,16,25,27.70
2012,08,03,16,26,27.70
2012,08,03,16,27,27.70
2012,08,03,16,28,27.70
2012,08,03,16,29,27.80
2012,08,03,16,30,27.90
2012,08,03,16,31,27.90
2012,08,03,16,32,27.90
2012,08,03,16,33,27.90
2012,08,03,16,34,27.90
2012,08,03,16,35,27.90
2012,08,03,16,36,27.80
2012,08,03,16,37,27.80
2012,08,03,16,38,27.80
2012,08,03,16,39,27.80
2012,08,03,16,40,27.80
2012,08,03,16,41,27.90
2012,08,03,16,42,27.90
2012,08,03,16,43,27.90
2012,08,03,16,44,27.90
2012,08,03,16,45,27.80
2012,08,03,16,46,27.70
2012,08,03,16,47,27.70
2012,08,03,16,48,27.70
2012,08,03,16,49,27.70
2012,08,03,16,50,27.70
2012,08,03,16,51,27.70
2012,08,03,16,52,27.80
2012,08,03,16,53,27.90
2012,08,03,16,54,28.00
2012,08,03,16,55,27.90
2012,08,03,16,56,27.90
2012,08,03,16,57,27.90
2012,08,03,16,58,27.90
2012,08,03,16,59,27.80
2012,08,03,17,00,27.90
2012,08,03,17,01,27.90
2012,08,03,17,02,27.80
2012,08,03,17,03,27.80
2012,08,03,17,04,27.90
2012,08,03,17,05,27.90
2012,08,03,17,06,27.90
2012,08,03,17,07,27.90
2012,08,03,17,08,27.80
2012,08,03,17,09,27.70
2012,08,03,17,10,27.70
2012,08,03,17,11,27.70
2012,08,03,17,12,27.70
2012,08,03,17,13,27.70
2012,08,03,17,14,27.70
2012,08,03,17,15,27.70
2012,08,03,17,16,27.60
2012,08,03,17,17,27.60
2012,08,03,17,18,27.60
2012,08,03,17,19,27.60
2012,08,03,17,20,27.60
2012,08,03,17,21,27.70
2012,08,03,17,22,27.70